COSMOS 1275 DEB, 15541

Orbit data source: Space-Track

COSMOS 1275 DEB, 15541 is space debris in LEO originally from a launch on Thu, 04 Jun 1981 UTC launched from the Plesetsk Missile And Space Complex (PKMTR). Debris objects in space refer to the collection of defunct objects orbiting the Earth. Examples of debris include non-operational satellites, rocket bodies, and fragments generated from explosions, collisions, or faulty payload assembly.

Loading next visibility...
Identifier
15541, 1981-053JZ
Orbit
LEO
Country
Flag of CISCIS
Related business
Manufacturer
Unknown
Mission
Spacecraft
Bus & Motor
Unknown
Mass
Unknown
Launch date (UTC)
1981-06-04 (44 years ago)
Launch vehicle
Unknown
Launch site
Plesetsk Missile And Space Complex (PKMTR)
Object type
Payload
Rocket body
Debris
Shape & HBR
Unknown shape, 0.1 m
Radar Cross Section
Small (<0.1 m²)

Expand to show TLE details & history
Last TLE update: 11 hours ago

TLE from 11 hours ago
0 COSMOS 1275 DEB
1 15541U 81053JZ  25290.61658808  .00000463  00000-0  38312-3 0  9996
2 15541  82.8906 161.3566 0032297 331.2558  57.4687 13.86667859 88113
Epoch: 2025-10-17T14:47Z
TLE epoch observation values (Epoch: 2025-10-17T14:47:53.210Z)
Latitude
28.83838°
Longitude
-83.05718°
Altitude
931.249 km
Speed
7.395 km/s
True Right ascension
11h 01m 05s
True Declination
28° 41' 48"
Sunlit
Object was in daylight at epoch
Visualization orbit readout
Latitude
Unknown
Longitude
Unknown
Altitude
Unknown
Speed
Unknown
Apparent Right ascension
Unknown
Apparent Declination
Unknown
Sunlit
N/A
Visualization observer readout
Local Sidereal Time
20:59:37
Azimuth
Unknown
Elevation
Unknown
Doppler factor
Unknown
Orbital elements
Apogee altitude
961.093 km
Perigee altitude
913.839 km
Semi-major axis
7,315.603 km
Eccentricity
0.00323
Inclination
82.8906°
RAAN
161.3566°
Arg. of periapsis
331.2558°
True anomaly
57.7814°
Mean anomaly
57.4687°
Eccentric anomaly
57.62498°
Mean motion
3.46871 °/min
Orbital period
103.78 mins
BSTAR
0.00038312
Loading maneuver chart data...
Computing Atmospheric mass density...
Loading historical data...
Loading historical data...
Loading historical data...
Loading historical data...
Loading historical data...
Loading historical data...
Loading historical data...

Documentation

Showing up to 5 results
|